Time,TemperatureF,DewpointF,PressureIn,WindDirection,WindDirectionDegrees,WindSpeedMPH,WindSpeedGustMPH,Humidity,HourlyPrecipIn,Conditions,Clouds,dailyrainin,SolarRadiationWatts/m^2,SoftwareType,DateUTC
2013-03-08 00:00:00,33.2,29.8,30.28,NW,307,0.0,4.0,87,0.00,,---,0.00,0.00,VWS V14.00,2013-03-08 05:00:00,
2013-03-08 00:03:00,33.2,29.8,30.28,NW,307,1.0,2.0,87,0.00,,---,0.00,0.00,VWS V14.00,2013-03-08 05:03:00,
2013-03-08 00:08:00,33.2,29.8,30.28,NW,307,1.0,4.0,87,0.00,,---,0.00,0.00,VWS V14.00,2013-03-08 05:08:00,
2013-03-08 00:13:00,33.1,29.7,30.28,West,281,4.0,5.0,87,0.00,,---,0.00,0.00,VWS V14.00,2013-03-08 05:13:00,
2013-03-08 00:18:00,33.1,31.0,30.28,WNW,301,0.0,7.0,92,0.00,,---,0.00,0.00,VWS V14.00,2013-03-08 05:18:00,
2013-03-08 00:23:00,33.2,29.2,30.28,NW,313,0.0,7.0,85,0.00,,---,0.00,0.00,VWS V14.00,2013-03-08 05:23:00,
2013-03-08 00:28:00,33.3,29.3,30.28,NW,319,1.0,7.0,85,0.00,,---,0.00,0.00,VWS V14.00,2013-03-08 05:28:00,
2013-03-08 00:30:00,33.1,28.8,30.28,NNW,330,5.0,7.0,84,0.00,,---,0.00,0.00,VWS V14.00,2013-03-08 05:30:00,
2013-03-08 00:33:00,33.3,29.3,30.28,NW,306,0.0,4.0,85,0.00,,---,0.00,0.00,VWS V14.00,2013-03-08 05:33:00,
2013-03-08 00:38:00,33.3,29.3,30.28,North,349,4.0,9.0,85,0.00,,---,0.00,0.00,VWS V14.00,2013-03-08 05:38:00,
2013-03-08 00:43:00,33.3,29.0,30.28,NW,317,4.0,9.0,84,0.00,,---,0.00,0.00,VWS V14.00,2013-03-08 05:43:00,
2013-03-08 00:48:00,33.4,29.1,30.28,NW,304,4.0,9.0,84,0.00,,---,0.00,0.00,VWS V14.00,2013-03-08 05:48:00,
2013-03-08 00:53:00,33.3,29.3,30.28,WNW,296,1.0,9.0,85,0.00,,---,0.00,0.00,VWS V14.00,2013-03-08 05:53:00,
2013-03-08 00:58:00,33.3,29.3,30.28,NNW,345,4.0,9.0,85,0.00,,---,0.00,0.00,VWS V14.00,2013-03-08 05:58:00,
2013-03-08 01:00:00,32.9,28.3,30.29,NNE,30,2.0,9.0,83,0.00,,---,0.00,0.00,VWS V14.00,2013-03-08 06:00:00,
2013-03-08 01:03:00,33.3,29.3,30.28,NW,310,1.0,4.0,85,0.00,,---,0.00,0.00,VWS V14.00,2013-03-08 06:03:00,
2013-03-08 01:08:00,33.2,29.2,30.28,NNW,340,0.0,6.0,85,0.00,,---,0.00,0.00,VWS V14.00,2013-03-08 06:08:00,
2013-03-08 01:13:00,33.2,29.2,30.28,NNW,342,0.0,6.0,85,0.00,,---,0.00,0.00,VWS V14.00,2013-03-08 06:13:00,
2013-03-08 01:18:00,33.2,29.2,30.28,NNW,329,1.0,6.0,85,0.00,,---,0.00,0.00,VWS V14.00,2013-03-08 06:18:00,
2013-03-08 01:23:00,33.2,29.2,30.29,NNW,336,0.0,6.0,85,0.00,,---,0.00,0.00,VWS V14.00,2013-03-08 06:23:00,
2013-03-08 01:28:00,33.1,29.1,30.28,NNE,33,4.0,6.0,85,0.00,,---,0.00,0.00,VWS V14.00,2013-03-08 06:28:00,
2013-03-08 01:30:00,32.5,27.3,30.30,NW,315,7.0,13.0,81,0.00,,---,0.00,0.00,VWS V14.00,2013-03-08 06:30:00,
2013-03-08 01:33:00,33.1,28.8,30.29,NW,326,9.0,9.0,84,0.00,,---,0.00,0.00,VWS V14.00,2013-03-08 06:33:00,
2013-03-08 01:38:00,33.1,28.8,30.29,NNE,15,2.0,9.0,84,0.00,,---,0.00,0.00,VWS V14.00,2013-03-08 06:38:00,
2013-03-08 01:43:00,33.0,28.4,30.29,NNE,21,3.0,9.0,83,0.00,,---,0.00,0.00,VWS V14.00,2013-03-08 06:43:00,
2013-03-08 01:48:00,33.0,28.7,30.29,NNW,342,2.0,9.0,84,0.00,,---,0.00,0.00,VWS V14.00,2013-03-08 06:48:00,
2013-03-08 01:53:00,32.9,28.3,30.29,North,349,4.0,9.0,83,0.00,,---,0.00,0.00,VWS V14.00,2013-03-08 06:53:00,
2013-03-08 01:58:00,32.9,28.3,30.29,NNE,22,3.0,9.0,83,0.00,,---,0.00,0.00,VWS V14.00,2013-03-08 06:58:00,
2013-03-08 02:00:00,32.1,26.9,30.30,NW,325,2.0,14.0,81,0.00,,---,0.00,0.00,VWS V14.00,2013-03-08 07:00:00,
2013-03-08 02:03:00,32.8,28.2,30.29,NNW,334,1.0,4.0,83,0.00,,---,0.00,0.00,VWS V14.00,2013-03-08 07:03:00,
2013-03-08 02:09:00,32.7,28.1,30.30,NNW,346,2.0,6.0,83,0.00,,---,0.00,0.00,VWS V14.00,2013-03-08 07:09:00,
2013-03-08 02:14:00,32.7,28.1,30.30,NNW,348,2.0,7.0,83,0.00,,---,0.00,0.00,VWS V14.00,2013-03-08 07:14:00,
2013-03-08 02:19:00,32.6,28.0,30.30,North,355,0.0,7.0,83,0.00,,---,0.00,0.00,VWS V14.00,2013-03-08 07:19:00,
2013-03-08 02:24:00,32.6,27.7,30.30,NE,35,2.0,7.0,82,0.00,,---,0.00,0.00,VWS V14.00,2013-03-08 07:24:00,
2013-03-08 02:29:00,32.6,27.7,30.30,NNW,340,4.0,10.0,82,0.00,,---,0.00,0.00,VWS V14.00,2013-03-08 07:29:00,
2013-03-08 02:30:00,31.9,27.0,30.30,NW,320,2.0,13.0,82,0.00,,---,0.00,0.00,VWS V14.00,2013-03-08 07:30:00,
2013-03-08 02:34:00,32.5,27.3,30.30,NW,310,5.0,14.0,81,0.00,,---,0.00,0.00,VWS V14.00,2013-03-08 07:34:00,
2013-03-08 02:39:00,32.5,27.3,30.30,NNW,346,4.0,14.0,81,0.00,,---,0.00,0.00,VWS V14.00,2013-03-08 07:39:00,
2013-03-08 02:44:00,32.4,27.2,30.29,NNW,336,4.0,14.0,81,0.00,,---,0.00,0.00,VWS V14.00,2013-03-08 07:44:00,
2013-03-08 02:49:00,32.3,27.1,30.29,NNW,334,2.0,14.0,81,0.00,,---,0.00,0.00,VWS V14.00,2013-03-08 07:49:00,
2013-03-08 02:54:00,32.3,27.1,30.29,NNW,333,2.0,14.0,81,0.00,,---,0.00,0.00,VWS V14.00,2013-03-08 07:54:00,
2013-03-08 02:59:00,32.2,27.0,30.30,WNW,297,7.0,14.0,81,0.00,,---,0.00,0.00,VWS V14.00,2013-03-08 07:59:00,
2013-03-08 03:00:00,31.6,26.8,30.30,WNW,288,5.0,11.0,82,0.00,,---,0.00,0.00,VWS V14.00,2013-03-08 08:00:00,
2013-03-08 03:04:00,32.1,26.9,30.29,NW,305,1.0,6.0,81,0.00,,---,0.00,0.00,VWS V14.00,2013-03-08 08:04:00,
2013-03-08 03:09:00,32.1,27.2,30.30,NW,317,6.0,8.0,82,0.00,,---,0.00,0.00,VWS V14.00,2013-03-08 08:09:00,
2013-03-08 03:14:00,32.0,26.8,30.30,NW,307,4.0,13.0,81,0.00,,---,0.00,0.00,VWS V14.00,2013-03-08 08:14:00,
2013-03-08 03:19:00,32.0,27.1,30.30,WNW,292,9.0,13.0,82,0.00,,---,0.00,0.00,VWS V14.00,2013-03-08 08:19:00,
2013-03-08 03:24:00,31.9,26.7,30.30,NW,312,5.0,13.0,81,0.00,,---,0.00,0.00,VWS V14.00,2013-03-08 08:24:00,
2013-03-08 03:29:00,31.9,26.7,30.30,NW,313,4.0,13.0,81,0.00,,---,0.00,0.00,VWS V14.00,2013-03-08 08:29:00,
2013-03-08 03:30:00,31.0,25.6,30.30,WNW,288,9.0,15.0,80,0.00,,---,0.00,0.00,VWS V14.00,2013-03-08 08:30:00,
2013-03-08 03:34:00,31.8,26.9,30.30,NNW,341,7.0,8.0,82,0.00,,---,0.00,0.00,VWS V14.00,2013-03-08 08:34:00,
2013-03-08 03:39:00,31.8,26.9,30.30,North,355,6.0,10.0,82,0.00,,---,0.00,0.00,VWS V14.00,2013-03-08 08:39:00,
2013-03-08 03:44:00,31.7,26.8,30.31,North,355,4.0,10.0,82,0.00,,---,0.00,0.00,VWS V14.00,2013-03-08 08:44:00,
2013-03-08 03:49:00,31.7,26.8,30.31,NNW,329,4.0,11.0,82,0.00,,---,0.00,0.00,VWS V14.00,2013-03-08 08:49:00,
2013-03-08 03:54:00,31.6,26.8,30.31,NW,306,5.0,11.0,82,0.00,,---,0.00,0.00,VWS V14.00,2013-03-08 08:54:00,
2013-03-08 03:59:00,31.6,26.8,30.30,WNW,300,5.0,11.0,82,0.00,,---,0.00,0.00,VWS V14.00,2013-03-08 08:59:00,
2013-03-08 04:00:00,30.7,25.9,30.32,NNW,346,0.0,14.0,82,0.00,,---,0.00,0.00,VWS V14.00,2013-03-08 09:00:00,
2013-03-08 04:04:00,31.5,26.6,30.30,WNW,296,6.0,11.0,82,0.00,,---,0.00,0.00,VWS V14.00,2013-03-08 09:04:00,
2013-03-08 04:09:00,31.3,26.8,30.30,WNW,302,2.0,11.0,83,0.00,,---,0.00,0.00,VWS V14.00,2013-03-08 09:09:00,
2013-03-08 04:14:00,31.1,26.5,30.30,NW,310,7.0,11.0,83,0.00,,---,0.00,0.00,VWS V14.00,2013-03-08 09:14:00,
2013-03-08 04:19:00,31.0,26.5,30.30,NW,304,8.0,13.0,83,0.00,,---,0.00,0.00,VWS V14.00,2013-03-08 09:19:00,
2013-03-08 04:24:00,31.1,26.3,30.31,WNW,296,8.0,15.0,82,0.00,,---,0.00,0.00,VWS V14.00,2013-03-08 09:24:00,
2013-03-08 04:30:00,31.1,25.7,30.30,WNW,303,12.0,15.0,80,0.00,,---,0.00,0.00,VWS V14.00,2013-03-08 09:30:00,
2013-03-08 04:35:00,30.9,25.5,30.31,NW,307,5.0,14.0,80,0.00,,---,0.00,0.00,VWS V14.00,2013-03-08 09:35:00,
2013-03-08 04:40:00,30.7,25.6,30.31,WNW,298,4.0,14.0,81,0.00,,---,0.00,0.00,VWS V14.00,2013-03-08 09:40:00,
2013-03-08 04:45:00,30.6,25.5,30.31,WNW,298,4.0,14.0,81,0.00,,---,0.00,0.00,VWS V14.00,2013-03-08 09:45:00,
2013-03-08 04:50:00,30.5,25.7,30.32,WNW,301,1.0,14.0,82,0.00,,---,0.00,0.00,VWS V14.00,2013-03-08 09:50:00,
2013-03-08 04:55:00,30.5,25.7,30.32,NNW,333,0.0,14.0,82,0.00,,---,0.00,0.00,VWS V14.00,2013-03-08 09:55:00,
2013-03-08 05:00:00,30.6,25.8,30.32,NNW,346,2.0,14.0,82,0.00,,---,0.00,0.00,VWS V14.00,2013-03-08 10:00:00,
2013-03-08 05:05:00,30.7,25.9,30.32,NNW,329,4.0,6.0,82,0.00,,---,0.00,0.00,VWS V14.00,2013-03-08 10:05:00,
2013-03-08 05:10:00,30.8,26.0,30.32,WNW,296,4.0,7.0,82,0.00,,---,0.00,0.00,VWS V14.00,2013-03-08 10:10:00,
2013-03-08 05:15:00,30.9,26.1,30.33,NW,308,6.0,11.0,82,0.00,,---,0.00,0.00,VWS V14.00,2013-03-08 10:15:00,
2013-03-08 05:20:00,30.9,26.1,30.33,North,351,6.0,11.0,82,0.00,,---,0.00,0.00,VWS V14.00,2013-03-08 10:20:00,
2013-03-08 05:25:00,30.9,26.1,30.33,NW,317,2.0,11.0,82,0.00,,---,0.00,0.00,VWS V14.00,2013-03-08 10:25:00,
2013-03-08 05:30:00,30.9,26.1,30.33,NW,323,1.0,11.0,82,0.00,,---,0.00,0.00,VWS V14.00,2013-03-08 10:30:00,
2013-03-08 05:35:00,30.9,26.1,30.34,North,351,1.0,7.0,82,0.00,,---,0.00,0.00,VWS V14.00,2013-03-08 10:35:00,
2013-03-08 05:40:00,31.0,25.9,30.34,NNW,330,1.0,7.0,81,0.00,,---,0.00,0.00,VWS V14.00,2013-03-08 10:40:00,
2013-03-08 05:45:00,31.0,26.2,30.34,NW,323,2.0,7.0,82,0.00,,---,0.00,0.00,VWS V14.00,2013-03-08 10:45:00,
2013-03-08 05:50:00,30.9,26.1,30.34,NW,306,7.0,8.0,82,0.00,,---,0.00,0.00,VWS V14.00,2013-03-08 10:50:00,
2013-03-08 05:55:00,30.8,26.0,30.34,WNW,294,4.0,9.0,82,0.00,,---,0.00,0.00,VWS V14.00,2013-03-08 10:55:00,
2013-03-08 06:00:00,30.8,26.0,30.34,WNW,302,7.0,11.0,82,0.00,,---,0.00,0.00,VWS V14.00,2013-03-08 11:00:00,
2013-03-08 06:05:00,30.8,26.0,30.34,NNW,329,2.0,8.0,82,0.00,,---,0.00,0.00,VWS V14.00,2013-03-08 11:05:00,
2013-03-08 06:10:00,30.7,25.6,30.34,WNW,299,5.0,12.0,81,0.00,,---,0.00,0.00,VWS V14.00,2013-03-08 11:10:00,
2013-03-08 06:15:00,30.6,25.5,30.35,NW,317,4.0,12.0,81,0.00,,---,0.00,0.00,VWS V14.00,2013-03-08 11:15:00,
2013-03-08 06:20:00,30.5,25.7,30.35,NNW,329,2.0,12.0,82,0.00,,---,0.00,0.00,VWS V14.00,2013-03-08 11:20:00,
2013-03-08 06:25:00,30.5,25.7,30.35,NW,317,4.0,12.0,82,0.00,,---,0.00,0.00,VWS V14.00,2013-03-08 11:25:00,
2013-03-08 06:30:00,30.4,25.6,30.35,NNW,327,5.0,12.0,82,0.00,,---,0.00,0.00,VWS V14.00,2013-03-08 11:30:00,
2013-03-08 06:35:00,30.3,25.5,30.35,WNW,286,2.0,7.0,82,0.00,,---,0.00,0.00,VWS V14.00,2013-03-08 11:35:00,
2013-03-08 06:40:00,30.3,25.5,30.36,NNW,340,4.0,9.0,82,0.00,,---,0.00,0.00,VWS V14.00,2013-03-08 11:40:00,
2013-03-08 06:45:00,30.3,25.5,30.36,NW,316,6.0,9.0,82,0.00,,---,0.00,0.00,VWS V14.00,2013-03-08 11:45:00,
2013-03-08 06:50:00,30.3,25.5,30.36,WNW,303,4.0,14.0,82,0.00,,---,0.00,5.00,VWS V14.00,2013-03-08 11:50:00,
2013-03-08 06:56:00,30.4,25.6,30.36,WNW,298,2.0,14.0,82,0.00,,---,0.00,9.00,VWS V14.00,2013-03-08 11:56:00,
2013-03-08 07:00:00,30.8,26.3,30.39,NNW,345,6.0,11.0,83,0.00,,---,0.00,56.00,VWS V14.00,2013-03-08 12:00:00,
2013-03-08 07:01:00,30.4,25.6,30.37,WNW,300,4.0,14.0,82,0.00,,---,0.00,11.00,VWS V14.00,2013-03-08 12:01:00,
2013-03-08 07:06:00,30.4,25.6,30.36,WNW,294,1.0,8.0,82,0.00,,---,0.00,14.00,VWS V14.00,2013-03-08 12:06:00,
2013-03-08 07:11:00,30.5,25.7,30.37,WNW,300,4.0,8.0,82,0.00,,---,0.00,19.00,VWS V14.00,2013-03-08 12:11:00,
2013-03-08 07:16:00,30.5,25.7,30.37,NNW,328,4.0,8.0,82,0.00,,---,0.00,23.00,VWS V14.00,2013-03-08 12:16:00,
2013-03-08 07:21:00,30.5,25.7,30.38,NW,325,2.0,8.0,82,0.00,,---,0.00,21.00,VWS V14.00,2013-03-08 12:21:00,
2013-03-08 07:26:00,30.6,25.8,30.37,NW,320,2.0,8.0,82,0.00,,---,0.00,28.00,VWS V14.00,2013-03-08 12:26:00,
2013-03-08 07:30:00,31.1,26.5,30.40,North,355,4.0,9.0,83,0.00,,---,0.00,100.00,VWS V14.00,2013-03-08 12:30:00,
2013-03-08 07:31:00,30.6,25.8,30.38,NNW,327,2.0,8.0,82,0.00,,---,0.00,32.00,VWS V14.00,2013-03-08 12:31:00,
2013-03-08 07:36:00,30.7,25.9,30.38,NW,324,6.0,6.0,82,0.00,,---,0.00,33.00,VWS V14.00,2013-03-08 12:36:00,
2013-03-08 07:41:00,30.7,25.9,30.38,NNW,346,4.0,7.0,82,0.00,,---,0.00,33.00,VWS V14.00,2013-03-08 12:41:00,
2013-03-08 07:46:00,30.8,26.3,30.38,NNW,343,6.0,7.0,83,0.00,,---,0.00,37.00,VWS V14.00,2013-03-08 12:46:00,
2013-03-08 07:51:00,30.8,26.3,30.38,NNW,332,5.0,11.0,83,0.00,,---,0.00,39.00,VWS V14.00,2013-03-08 12:51:00,
2013-03-08 07:56:00,30.8,26.3,30.38,NE,34,5.0,11.0,83,0.00,,---,0.00,47.00,VWS V14.00,2013-03-08 12:56:00,
2013-03-08 08:00:00,31.6,26.8,30.40,NNW,333,4.0,10.0,82,0.00,,---,0.00,206.00,VWS V14.00,2013-03-08 13:00:00,
2013-03-08 08:01:00,30.8,26.3,30.39,NNW,341,5.0,6.0,83,0.00,,---,0.00,56.00,VWS V14.00,2013-03-08 13:01:00,
2013-03-08 08:06:00,30.8,26.3,30.39,North,9,5.0,9.0,83,0.00,,---,0.00,56.00,VWS V14.00,2013-03-08 13:06:00,
2013-03-08 08:11:00,30.9,26.4,30.39,NNW,337,1.0,9.0,83,0.00,,---,0.00,62.00,VWS V14.00,2013-03-08 13:11:00,
2013-03-08 08:16:00,30.9,26.6,30.40,NNW,344,1.0,9.0,84,0.00,,---,0.00,65.00,VWS V14.00,2013-03-08 13:16:00,
2013-03-08 08:21:00,31.0,26.7,30.40,North,5,5.0,9.0,84,0.00,,---,0.00,84.00,VWS V14.00,2013-03-08 13:21:00,
2013-03-08 08:26:00,31.1,26.5,30.40,NNW,344,4.0,9.0,83,0.00,,---,0.00,86.00,VWS V14.00,2013-03-08 13:26:00,
2013-03-08 08:30:00,32.0,26.8,30.41,NW,318,4.0,12.0,81,0.00,,---,0.00,100.00,VWS V14.00,2013-03-08 13:30:00,
2013-03-08 08:31:00,31.1,26.5,30.40,NNW,342,6.0,6.0,83,0.00,,---,0.00,107.00,VWS V14.00,2013-03-08 13:31:00,
2013-03-08 08:36:00,31.1,26.5,30.40,NE,40,4.0,6.0,83,0.00,,---,0.00,127.00,VWS V14.00,2013-03-08 13:36:00,
2013-03-08 08:41:00,31.2,26.6,30.40,North,360,6.0,10.0,83,0.00,,---,0.00,130.00,VWS V14.00,2013-03-08 13:41:00,
2013-03-08 08:46:00,31.3,26.8,30.40,NNW,329,4.0,10.0,83,0.00,,---,0.00,144.00,VWS V14.00,2013-03-08 13:46:00,
2013-03-08 08:51:00,31.4,26.8,30.40,NW,325,6.0,10.0,83,0.00,,---,0.00,144.00,VWS V14.00,2013-03-08 13:51:00,
2013-03-08 08:56:00,31.4,26.8,30.40,ENE,57,0.0,10.0,83,0.00,,---,0.00,193.00,VWS V14.00,2013-03-08 13:56:00,
2013-03-08 09:00:00,34.4,29.8,30.40,WNW,282,6.0,13.0,83,0.00,,---,0.00,336.00,VWS V14.00,2013-03-08 14:00:00,
2013-03-08 09:01:00,31.6,26.8,30.40,WNW,298,5.0,6.0,82,0.00,,---,0.00,197.00,VWS V14.00,2013-03-08 14:01:00,
2013-03-08 09:06:00,31.7,27.1,30.40,WNW,295,4.0,7.0,83,0.00,,---,0.00,244.00,VWS V14.00,2013-03-08 14:06:00,
2013-03-08 09:11:00,31.9,27.3,30.41,NNW,344,6.0,9.0,83,0.00,,---,0.00,162.00,VWS V14.00,2013-03-08 14:11:00,
2013-03-08 09:16:00,31.9,27.0,30.40,NNW,333,2.0,9.0,82,0.00,,---,0.00,174.00,VWS V14.00,2013-03-08 14:16:00,
2013-03-08 09:22:00,32.0,27.1,30.41,WNW,303,6.0,9.0,82,0.00,,---,0.00,146.00,VWS V14.00,2013-03-08 14:22:00,
2013-03-08 09:27:00,32.1,27.2,30.41,North,350,5.0,11.0,82,0.00,,---,0.00,97.00,VWS V14.00,2013-03-08 14:27:00,
2013-03-08 09:30:00,34.8,29.0,30.40,WNW,293,13.0,15.0,79,0.00,,---,0.01,281.00,VWS V14.00,2013-03-08 14:30:00,
2013-03-08 09:32:00,32.0,27.1,30.41,NW,311,5.0,7.0,82,0.00,,---,0.00,107.00,VWS V14.00,2013-03-08 14:32:00,
2013-03-08 09:37:00,32.1,27.2,30.41,WNW,303,1.0,12.0,82,0.00,,---,0.00,264.00,VWS V14.00,2013-03-08 14:37:00,
2013-03-08 09:42:00,32.4,27.8,30.41,WNW,300,6.0,12.0,83,0.00,,---,0.00,392.00,VWS V14.00,2013-03-08 14:42:00,
2013-03-08 09:47:00,33.0,28.7,30.40,West,277,6.0,12.0,84,0.00,,---,0.00,555.00,VWS V14.00,2013-03-08 14:47:00,
2013-03-08 09:52:00,33.6,29.3,30.40,WNW,290,7.0,13.0,84,0.00,,---,0.00,570.00,VWS V14.00,2013-03-08 14:52:00,
2013-03-08 09:57:00,34.1,28.9,30.40,WNW,296,4.0,13.0,81,0.00,,---,0.00,499.00,VWS V14.00,2013-03-08 14:57:00,
2013-03-08 10:00:00,36.4,29.9,30.40,NW,316,5.0,20.0,77,0.00,,---,0.01,297.00,VWS V14.00,2013-03-08 15:00:00,
2013-03-08 10:02:00,34.5,29.6,30.40,WNW,296,2.0,8.0,82,0.00,,---,0.00,322.00,VWS V14.00,2013-03-08 15:02:00,
2013-03-08 10:07:00,34.6,29.4,30.40,WNW,297,1.0,8.0,81,0.00,,---,0.00,267.00,VWS V14.00,2013-03-08 15:07:00,
2013-03-08 10:12:00,34.6,28.5,30.40,NNE,13,5.0,13.0,78,0.00,,---,0.01,302.00,VWS V14.00,2013-03-08 15:12:00,
2013-03-08 10:17:00,34.5,28.7,30.40,North,360,8.0,15.0,79,0.00,,---,0.01,221.00,VWS V14.00,2013-03-08 15:17:00,
2013-03-08 10:22:00,34.5,28.4,30.40,NNW,332,7.0,15.0,78,0.00,,---,0.01,236.00,VWS V14.00,2013-03-08 15:22:00,
2013-03-08 10:27:00,34.6,28.1,30.39,NW,312,6.0,15.0,77,0.00,,---,0.01,350.00,VWS V14.00,2013-03-08 15:27:00,
2013-03-08 10:30:00,35.4,28.0,30.40,North,360,7.0,15.0,74,0.00,,---,0.01,188.00,VWS V14.00,2013-03-08 15:30:00,
2013-03-08 10:32:00,34.8,28.6,30.39,WNW,298,14.0,14.0,78,0.00,,---,0.01,315.00,VWS V14.00,2013-03-08 15:32:00,
2013-03-08 10:37:00,34.8,28.6,30.40,NW,304,8.0,18.0,78,0.00,,---,0.01,302.00,VWS V14.00,2013-03-08 15:37:00,
2013-03-08 10:42:00,34.9,28.1,30.40,NNW,338,10.0,18.0,76,0.00,,---,0.01,283.00,VWS V14.00,2013-03-08 15:42:00,
2013-03-08 10:47:00,35.0,27.9,30.39,WNW,302,4.0,20.0,75,0.00,,---,0.01,239.00,VWS V14.00,2013-03-08 15:47:00,
2013-03-08 10:52:00,35.4,28.6,30.39,North,351,12.0,20.0,76,0.00,,---,0.01,285.00,VWS V14.00,2013-03-08 15:52:00,
2013-03-08 10:57:00,35.8,29.3,30.39,NW,306,2.0,20.0,77,0.00,,---,0.01,288.00,VWS V14.00,2013-03-08 15:57:00,
2013-03-08 11:00:00,35.9,28.8,30.39,WNW,294,5.0,11.0,75,0.00,,---,0.01,232.00,VWS V14.00,2013-03-08 16:00:00,
2013-03-08 11:02:00,36.5,29.3,30.39,North,11,8.0,12.0,75,0.00,,---,0.01,371.00,VWS V14.00,2013-03-08 16:02:00,
2013-03-08 11:07:00,36.3,28.8,30.40,WNW,301,12.0,15.0,74,0.00,,---,0.01,334.00,VWS V14.00,2013-03-08 16:07:00,
2013-03-08 11:12:00,35.9,28.8,30.40,West,281,9.0,15.0,75,0.00,,---,0.01,257.00,VWS V14.00,2013-03-08 16:12:00,
2013-03-08 11:17:00,35.4,28.3,30.40,NNW,336,4.0,15.0,75,0.00,,---,0.01,274.00,VWS V14.00,2013-03-08 16:17:00,
2013-03-08 11:22:00,35.4,28.6,30.40,North,355,5.0,15.0,76,0.00,,---,0.01,213.00,VWS V14.00,2013-03-08 16:22:00,
2013-03-08 11:27:00,35.5,28.4,30.40,NNE,20,4.0,15.0,75,0.00,,---,0.01,218.00,VWS V14.00,2013-03-08 16:27:00,
2013-03-08 11:30:00,35.6,28.5,30.38,North,360,4.0,15.0,75,0.00,,---,0.01,181.00,VWS V14.00,2013-03-08 16:30:00,
2013-03-08 11:32:00,35.4,28.0,30.40,NNW,336,9.0,10.0,74,0.00,,---,0.01,172.00,VWS V14.00,2013-03-08 16:32:00,
2013-03-08 11:37:00,35.3,28.2,30.40,NNE,21,2.0,10.0,75,0.00,,---,0.01,241.00,VWS V14.00,2013-03-08 16:37:00,
2013-03-08 11:42:00,35.3,28.2,30.40,North,349,7.0,10.0,75,0.00,,---,0.01,163.00,VWS V14.00,2013-03-08 16:42:00,
2013-03-08 11:47:00,35.4,28.3,30.40,WNW,292,6.0,10.0,75,0.00,,---,0.01,192.00,VWS V14.00,2013-03-08 16:47:00,
2013-03-08 11:52:00,35.5,28.7,30.40,NW,312,6.0,11.0,76,0.00,,---,0.01,357.00,VWS V14.00,2013-03-08 16:52:00,
2013-03-08 11:57:00,35.8,29.0,30.39,WNW,298,5.0,11.0,76,0.00,,---,0.01,258.00,VWS V14.00,2013-03-08 16:57:00,
2013-03-08 12:00:00,35.7,28.6,30.38,NE,40,5.0,12.0,75,0.00,,---,0.01,160.00,VWS V14.00,2013-03-08 17:00:00,
2013-03-08 12:03:00,35.9,29.1,30.39,NNW,337,8.0,12.0,76,0.00,,---,0.01,199.00,VWS V14.00,2013-03-08 17:03:00,
2013-03-08 12:08:00,35.7,27.9,30.39,WNW,288,7.0,14.0,73,0.00,,---,0.01,144.00,VWS V14.00,2013-03-08 17:08:00,
2013-03-08 12:13:00,35.4,28.0,30.39,NNW,333,7.0,15.0,74,0.00,,---,0.01,163.00,VWS V14.00,2013-03-08 17:13:00,
2013-03-08 12:18:00,35.4,28.3,30.39,North,10,9.0,15.0,75,0.00,,---,0.01,193.00,VWS V14.00,2013-03-08 17:18:00,
2013-03-08 12:23:00,35.4,28.0,30.39,NNE,17,7.0,15.0,74,0.00,,---,0.01,248.00,VWS V14.00,2013-03-08 17:23:00,
2013-03-08 12:28:00,35.6,28.5,30.38,NNE,32,3.0,15.0,75,0.00,,---,0.01,197.00,VWS V14.00,2013-03-08 17:28:00,
2013-03-08 12:30:00,36.3,28.8,30.37,NW,321,8.0,12.0,74,0.00,,---,0.01,223.00,VWS V14.00,2013-03-08 17:30:00,
2013-03-08 12:33:00,35.6,28.5,30.38,NNW,345,5.0,9.0,75,0.00,,---,0.01,169.00,VWS V14.00,2013-03-08 17:33:00,
2013-03-08 12:38:00,35.5,28.0,30.38,NW,326,4.0,9.0,74,0.00,,---,0.01,195.00,VWS V14.00,2013-03-08 17:38:00,
2013-03-08 12:43:00,35.7,28.6,30.38,NW,317,4.0,9.0,75,0.00,,---,0.01,142.00,VWS V14.00,2013-03-08 17:43:00,
2013-03-08 12:48:00,35.7,28.6,30.38,North,355,10.0,12.0,75,0.00,,---,0.01,142.00,VWS V14.00,2013-03-08 17:48:00,
2013-03-08 12:53:00,35.5,28.4,30.38,NNE,19,5.0,12.0,75,0.00,,---,0.01,285.00,VWS V14.00,2013-03-08 17:53:00,
2013-03-08 12:58:00,35.7,28.9,30.38,NNE,16,2.0,12.0,76,0.00,,---,0.01,192.00,VWS V14.00,2013-03-08 17:58:00,
2013-03-08 13:00:00,36.4,28.9,30.37,NNW,329,7.0,12.0,74,0.00,,---,0.01,192.00,VWS V14.00,2013-03-08 18:00:00,
2013-03-08 13:03:00,35.8,28.7,30.38,NNW,334,4.0,7.0,75,0.00,,---,0.01,151.00,VWS V14.00,2013-03-08 18:03:00,
2013-03-08 13:08:00,35.6,28.1,30.38,NNW,338,6.0,12.0,74,0.00,,---,0.01,171.00,VWS V14.00,2013-03-08 18:08:00,
2013-03-08 13:13:00,35.6,28.5,30.37,NNW,331,5.0,12.0,75,0.00,,---,0.01,250.00,VWS V14.00,2013-03-08 18:13:00,
2013-03-08 13:18:00,35.8,29.0,30.37,NNW,342,4.0,12.0,76,0.00,,---,0.01,283.00,VWS V14.00,2013-03-08 18:18:00,
2013-03-08 13:23:00,36.1,29.3,30.37,NNW,327,9.0,12.0,76,0.00,,---,0.01,204.00,VWS V14.00,2013-03-08 18:23:00,
2013-03-08 13:28:00,36.2,29.4,30.37,NNE,24,2.0,12.0,76,0.00,,---,0.01,285.00,VWS V14.00,2013-03-08 18:28:00,
2013-03-08 13:30:00,36.6,29.4,30.37,NNW,342,5.0,12.0,75,0.00,,---,0.01,153.00,VWS V14.00,2013-03-08 18:30:00,
2013-03-08 13:33:00,36.3,28.5,30.37,NW,314,4.0,12.0,73,0.00,,---,0.01,179.00,VWS V14.00,2013-03-08 18:33:00,
2013-03-08 13:38:00,36.1,28.6,30.37,NNW,340,5.0,12.0,74,0.00,,---,0.01,178.00,VWS V14.00,2013-03-08 18:38:00,
2013-03-08 13:43:00,36.1,29.0,30.37,NW,322,4.0,12.0,75,0.00,,---,0.01,176.00,VWS V14.00,2013-03-08 18:43:00,
2013-03-08 13:48:00,36.1,29.0,30.37,North,360,2.0,12.0,75,0.00,,---,0.01,229.00,VWS V14.00,2013-03-08 18:48:00,
2013-03-08 13:53:00,36.3,29.1,30.36,North,351,4.0,12.0,75,0.00,,---,0.01,207.00,VWS V14.00,2013-03-08 18:53:00,
2013-03-08 13:58:00,36.5,29.0,30.36,NE,45,7.0,12.0,74,0.00,,---,0.01,207.00,VWS V14.00,2013-03-08 18:58:00,
2013-03-08 14:00:00,36.4,28.6,30.37,NW,317,5.0,12.0,73,0.00,,---,0.01,171.00,VWS V14.00,2013-03-08 19:00:00,
2013-03-08 14:04:00,36.5,29.0,30.37,NNW,336,5.0,11.0,74,0.00,,---,0.01,183.00,VWS V14.00,2013-03-08 19:04:00,
2013-03-08 14:09:00,36.4,28.9,30.37,NNE,22,4.0,12.0,74,0.00,,---,0.01,155.00,VWS V14.00,2013-03-08 19:09:00,
2013-03-08 14:14:00,36.4,29.2,30.37,NNW,339,2.0,12.0,75,0.00,,---,0.01,234.00,VWS V14.00,2013-03-08 19:14:00,
2013-03-08 14:19:00,36.5,29.0,30.37,NNE,15,5.0,12.0,74,0.00,,---,0.01,216.00,VWS V14.00,2013-03-08 19:19:00,
2013-03-08 14:24:00,36.6,29.1,30.36,NW,323,8.0,12.0,74,0.00,,---,0.01,171.00,VWS V14.00,2013-03-08 19:24:00,
2013-03-08 14:29:00,36.7,29.2,30.36,NW,325,7.0,12.0,74,0.00,,---,0.01,155.00,VWS V14.00,2013-03-08 19:29:00,
2013-03-08 14:30:00,36.5,29.0,30.39,North,349,6.0,15.0,74,0.00,,---,0.01,88.00,VWS V14.00,2013-03-08 19:30:00,
2013-03-08 14:34:00,36.7,29.5,30.37,NNW,340,7.0,8.0,75,0.00,,---,0.01,141.00,VWS V14.00,2013-03-08 19:34:00,
2013-03-08 14:39:00,36.7,29.2,30.37,NE,40,6.0,11.0,74,0.00,,---,0.01,171.00,VWS V14.00,2013-03-08 19:39:00,
2013-03-08 14:44:00,36.6,29.1,30.37,NNW,347,7.0,12.0,74,0.00,,---,0.01,160.00,VWS V14.00,2013-03-08 19:44:00,
2013-03-08 14:49:00,36.5,29.0,30.37,NNW,331,4.0,12.0,74,0.00,,---,0.01,118.00,VWS V14.00,2013-03-08 19:49:00,
2013-03-08 14:54:00,36.5,29.3,30.37,North,5,5.0,12.0,75,0.00,,---,0.01,127.00,VWS V14.00,2013-03-08 19:54:00,
2013-03-08 14:59:00,36.5,28.7,30.37,NW,323,8.0,12.0,73,0.00,,---,0.01,169.00,VWS V14.00,2013-03-08 19:59:00,
2013-03-08 15:00:00,36.4,28.9,30.39,NW,323,7.0,11.0,74,0.00,,---,0.01,91.00,VWS V14.00,2013-03-08 20:00:00,
2013-03-08 15:04:00,36.4,28.6,30.37,North,355,6.0,10.0,73,0.00,,---,0.01,162.00,VWS V14.00,2013-03-08 20:04:00,
2013-03-08 15:09:00,36.6,29.1,30.38,NW,313,7.0,10.0,74,0.00,,---,0.01,153.00,VWS V14.00,2013-03-08 20:09:00,
2013-03-08 15:14:00,36.6,28.4,30.38,NW,321,4.0,15.0,72,0.00,,---,0.01,141.00,VWS V14.00,2013-03-08 20:14:00,
2013-03-08 15:19:00,36.6,28.8,30.38,NNE,17,2.0,15.0,73,0.00,,---,0.01,148.00,VWS V14.00,2013-03-08 20:19:00,
2013-03-08 15:24:00,36.6,28.4,30.38,NW,315,2.0,15.0,72,0.00,,---,0.01,113.00,VWS V14.00,2013-03-08 20:24:00,
2013-03-08 15:29:00,36.5,28.7,30.39,NNW,341,4.0,15.0,73,0.00,,---,0.01,95.00,VWS V14.00,2013-03-08 20:29:00,
2013-03-08 15:30:00,36.5,29.3,30.39,NNW,336,4.0,11.0,75,0.00,,---,0.01,91.00,VWS V14.00,2013-03-08 20:30:00,
2013-03-08 15:34:00,36.4,28.6,30.39,NNW,332,4.0,9.0,73,0.00,,---,0.01,90.00,VWS V14.00,2013-03-08 20:34:00,
2013-03-08 15:39:00,36.5,29.3,30.39,NNW,342,4.0,9.0,75,0.00,,---,0.01,95.00,VWS V14.00,2013-03-08 20:39:00,
2013-03-08 15:44:00,36.5,29.3,30.39,NNW,327,2.0,9.0,75,0.00,,---,0.01,97.00,VWS V14.00,2013-03-08 20:44:00,
2013-03-08 15:49:00,36.5,29.7,30.39,NNW,333,1.0,11.0,76,0.00,,---,0.01,109.00,VWS V14.00,2013-03-08 20:49:00,
2013-03-08 15:54:00,36.5,29.3,30.39,WNW,293,4.0,11.0,75,0.00,,---,0.01,84.00,VWS V14.00,2013-03-08 20:54:00,
2013-03-08 15:59:00,36.4,28.9,30.39,WNW,302,6.0,11.0,74,0.00,,---,0.01,90.00,VWS V14.00,2013-03-08 20:59:00,
2013-03-08 16:00:00,37.0,29.2,30.40,NNW,340,1.0,9.0,73,0.00,,---,0.01,90.00,VWS V14.00,2013-03-08 21:00:00,
2013-03-08 16:04:00,36.4,28.9,30.39,NNW,342,5.0,11.0,74,0.00,,---,0.01,83.00,VWS V14.00,2013-03-08 21:04:00,
2013-03-08 16:09:00,36.3,28.8,30.39,North,360,8.0,11.0,74,0.00,,---,0.01,77.00,VWS V14.00,2013-03-08 21:09:00,
2013-03-08 16:14:00,36.2,28.7,30.39,NNW,334,2.0,11.0,74,0.00,,---,0.01,86.00,VWS V14.00,2013-03-08 21:14:00,
2013-03-08 16:19:00,36.3,28.8,30.39,NE,34,4.0,11.0,74,0.00,,---,0.01,98.00,VWS V14.00,2013-03-08 21:19:00,
2013-03-08 16:25:00,36.4,28.9,30.39,NNW,333,5.0,11.0,74,0.00,,---,0.01,83.00,VWS V14.00,2013-03-08 21:25:00,
2013-03-08 16:30:00,36.5,29.0,30.39,NNW,337,0.0,11.0,74,0.00,,---,0.01,90.00,VWS V14.00,2013-03-08 21:30:00,
2013-03-08 16:35:00,36.6,29.1,30.39,NW,319,4.0,6.0,74,0.00,,---,0.01,91.00,VWS V14.00,2013-03-08 21:35:00,
2013-03-08 16:40:00,36.6,29.1,30.39,NW,309,2.0,9.0,74,0.00,,---,0.01,127.00,VWS V14.00,2013-03-08 21:40:00,
2013-03-08 16:45:00,36.8,29.3,30.39,North,355,0.0,9.0,74,0.00,,---,0.01,113.00,VWS V14.00,2013-03-08 21:45:00,
2013-03-08 16:50:00,36.9,29.4,30.39,NNW,333,7.0,9.0,74,0.00,,---,0.01,120.00,VWS V14.00,2013-03-08 21:50:00,
2013-03-08 16:55:00,37.0,28.8,30.39,NNW,346,0.0,9.0,72,0.00,,---,0.01,95.00,VWS V14.00,2013-03-08 21:55:00,
2013-03-08 17:00:00,37.0,29.2,30.39,NNW,340,0.0,9.0,73,0.00,,---,0.01,86.00,VWS V14.00,2013-03-08 22:00:00,
2013-03-08 17:05:00,37.1,29.6,30.40,WNW,286,0.0,5.0,74,0.00,,---,0.01,74.00,VWS V14.00,2013-03-08 22:05:00,
2013-03-08 17:10:00,37.1,29.3,30.40,WNW,286,0.0,5.0,73,0.00,,---,0.01,67.00,VWS V14.00,2013-03-08 22:10:00,
2013-03-08 17:15:00,37.1,28.9,30.39,NNW,346,4.0,5.0,72,0.00,,---,0.01,69.00,VWS V14.00,2013-03-08 22:15:00,
2013-03-08 17:20:00,37.1,29.3,30.40,North,9,4.0,5.0,73,0.00,,---,0.01,58.00,VWS V14.00,2013-03-08 22:20:00,
2013-03-08 17:25:00,37.1,29.3,30.40,NW,325,1.0,6.0,73,0.00,,---,0.01,53.00,VWS V14.00,2013-03-08 22:25:00,
2013-03-08 17:30:00,37.0,29.2,30.40,NNW,342,1.0,6.0,73,0.00,,---,0.01,58.00,VWS V14.00,2013-03-08 22:30:00,
2013-03-08 17:35:00,37.0,28.8,30.40,NNE,17,2.0,7.0,72,0.00,,---,0.01,44.00,VWS V14.00,2013-03-08 22:35:00,
2013-03-08 17:40:00,36.9,28.4,30.39,NNE,15,0.0,7.0,71,0.00,,---,0.01,37.00,VWS V14.00,2013-03-08 22:40:00,
2013-03-08 17:45:00,36.8,28.3,30.39,NNW,345,4.0,7.0,71,0.00,,---,0.01,28.00,VWS V14.00,2013-03-08 22:45:00,
2013-03-08 17:50:00,36.8,28.3,30.40,NNW,328,1.0,7.0,71,0.00,,---,0.01,23.00,VWS V14.00,2013-03-08 22:50:00,
2013-03-08 17:55:00,36.7,28.5,30.40,NW,325,4.0,7.0,72,0.00,,---,0.01,16.00,VWS V14.00,2013-03-08 22:55:00,
2013-03-08 18:00:00,36.7,28.9,30.40,NW,306,1.0,7.0,73,0.00,,---,0.01,11.00,VWS V14.00,2013-03-08 23:00:00,
2013-03-08 18:05:00,36.6,28.8,30.40,NNW,342,0.0,7.0,73,0.00,,---,0.01,9.00,VWS V14.00,2013-03-08 23:05:00,
2013-03-08 18:10:00,36.5,28.7,30.40,NW,315,2.0,7.0,73,0.00,,---,0.01,7.00,VWS V14.00,2013-03-08 23:10:00,
2013-03-08 18:15:00,36.4,28.6,30.40,NW,319,2.0,7.0,73,0.00,,---,0.01,5.00,VWS V14.00,2013-03-08 23:15:00,
2013-03-08 18:20:00,36.3,28.5,30.40,NW,304,1.0,7.0,73,0.00,,---,0.01,0.00,VWS V14.00,2013-03-08 23:20:00,
2013-03-08 18:25:00,36.1,28.3,30.40,NNW,338,2.0,7.0,73,0.00,,---,0.01,0.00,VWS V14.00,2013-03-08 23:25:00,
2013-03-08 18:30:00,36.0,28.5,30.40,WNW,303,2.0,7.0,74,0.00,,---,0.01,0.00,VWS V14.00,2013-03-08 23:30:00,
2013-03-08 18:35:00,35.9,28.4,30.40,WNW,302,1.0,5.0,74,0.00,,---,0.01,0.00,VWS V14.00,2013-03-08 23:35:00,
2013-03-08 18:40:00,35.7,28.2,30.41,WNW,300,2.0,7.0,74,0.00,,---,0.01,0.00,VWS V14.00,2013-03-08 23:40:00,
2013-03-08 18:46:00,35.7,28.2,30.41,WNW,296,4.0,7.0,74,0.00,,---,0.01,0.00,VWS V14.00,2013-03-08 23:46:00,
2013-03-08 18:51:00,35.7,28.2,30.41,WNW,294,4.0,7.0,74,0.00,,---,0.01,0.00,VWS V14.00,2013-03-08 23:51:00,
2013-03-08 18:56:00,35.5,27.7,30.41,WNW,295,5.0,8.0,73,0.00,,---,0.01,0.00,VWS V14.00,2013-03-08 23:56:00,
2013-03-08 19:00:00,32.9,26.5,30.41,WNW,291,0.0,4.0,77,0.00,,---,0.01,0.00,VWS V14.00,2013-03-09 00:00:00,
2013-03-08 19:01:00,35.4,28.0,30.41,WNW,292,4.0,8.0,74,0.00,,---,0.01,0.00,VWS V14.00,2013-03-09 00:01:00,
2013-03-08 19:06:00,35.1,27.7,30.41,WNW,298,1.0,5.0,74,0.00,,---,0.01,0.00,VWS V14.00,2013-03-09 00:06:00,
2013-03-08 19:11:00,34.9,27.5,30.41,WNW,286,2.0,7.0,74,0.00,,---,0.01,0.00,VWS V14.00,2013-03-09 00:11:00,
2013-03-08 19:16:00,34.8,27.7,30.41,WNW,298,2.0,7.0,75,0.00,,---,0.01,0.00,VWS V14.00,2013-03-09 00:16:00,
2013-03-08 19:21:00,34.5,27.1,30.41,NW,304,4.0,7.0,74,0.00,,---,0.01,0.00,VWS V14.00,2013-03-09 00:21:00,
2013-03-08 19:26:00,34.5,27.1,30.41,WNW,291,2.0,7.0,74,0.00,,---,0.01,0.00,VWS V14.00,2013-03-09 00:26:00,
2013-03-08 19:30:00,31.7,26.5,30.40,WNW,291,0.0,1.0,81,0.00,,---,0.01,0.00,VWS V14.00,2013-03-09 00:30:00,
2013-03-08 19:31:00,34.1,27.0,30.41,WNW,291,1.0,7.0,75,0.00,,---,0.01,0.00,VWS V14.00,2013-03-09 00:31:00,
2013-03-08 19:36:00,33.9,26.8,30.41,WNW,291,0.0,4.0,75,0.00,,---,0.01,0.00,VWS V14.00,2013-03-09 00:36:00,
2013-03-08 19:41:00,33.7,26.6,30.41,WNW,291,1.0,4.0,75,0.00,,---,0.01,0.00,VWS V14.00,2013-03-09 00:41:00,
2013-03-08 19:46:00,33.4,26.3,30.41,WNW,291,0.0,4.0,75,0.00,,---,0.01,0.00,VWS V14.00,2013-03-09 00:46:00,
2013-03-08 19:51:00,33.0,26.3,30.41,WNW,291,0.0,4.0,76,0.00,,---,0.01,0.00,VWS V14.00,2013-03-09 00:51:00,
2013-03-08 19:56:00,32.9,26.5,30.42,WNW,291,0.0,4.0,77,0.00,,---,0.01,0.00,VWS V14.00,2013-03-09 00:56:00,
2013-03-08 20:00:00,29.9,24.8,30.41,WNW,291,0.0,0.0,81,0.00,,---,0.01,0.00,VWS V14.00,2013-03-09 01:00:00,
2013-03-08 20:01:00,32.9,26.5,30.41,WNW,291,0.0,4.0,77,0.00,,---,0.01,0.00,VWS V14.00,2013-03-09 01:01:00,
2013-03-08 20:06:00,32.8,26.4,30.42,WNW,291,0.0,1.0,77,0.00,,---,0.01,0.00,VWS V14.00,2013-03-09 01:06:00,
2013-03-08 20:11:00,32.7,26.3,30.41,WNW,291,0.0,1.0,77,0.00,,---,0.01,0.00,VWS V14.00,2013-03-09 01:11:00,
2013-03-08 20:16:00,32.6,26.2,30.41,WNW,291,0.0,1.0,77,0.00,,---,0.01,0.00,VWS V14.00,2013-03-09 01:16:00,
2013-03-08 20:21:00,32.4,26.0,30.41,WNW,291,0.0,1.0,77,0.00,,---,0.01,0.00,VWS V14.00,2013-03-09 01:21:00,
2013-03-08 20:26:00,32.1,26.0,30.41,WNW,291,0.0,1.0,78,0.00,,---,0.01,0.00,VWS V14.00,2013-03-09 01:26:00,
2013-03-08 20:30:00,28.5,24.3,30.40,WNW,291,0.0,0.0,84,0.00,,---,0.01,0.00,VWS V14.00,2013-03-09 01:30:00,
2013-03-08 20:31:00,31.7,26.5,30.40,WNW,291,0.0,0.0,81,0.00,,---,0.01,0.00,VWS V14.00,2013-03-09 01:31:00,
2013-03-08 20:36:00,31.5,26.4,30.40,WNW,291,0.0,0.0,81,0.00,,---,0.01,0.00,VWS V14.00,2013-03-09 01:36:00,
2013-03-08 20:41:00,31.1,26.3,30.40,WNW,291,0.0,0.0,82,0.00,,---,0.01,0.00,VWS V14.00,2013-03-09 01:41:00,
2013-03-08 20:46:00,30.8,26.0,30.40,WNW,291,0.0,0.0,82,0.00,,---,0.01,0.00,VWS V14.00,2013-03-09 01:46:00,
2013-03-08 20:51:00,30.5,25.7,30.41,WNW,291,0.0,0.0,82,0.00,,---,0.01,0.00,VWS V14.00,2013-03-09 01:51:00,
2013-03-08 20:56:00,30.2,25.1,30.41,WNW,291,0.0,0.0,81,0.00,,---,0.01,0.00,VWS V14.00,2013-03-09 01:56:00,
2013-03-08 21:00:00,27.8,24.2,30.40,WNW,291,0.0,0.0,86,0.00,,---,0.01,0.00,VWS V14.00,2013-03-09 02:00:00,
2013-03-08 21:01:00,29.8,24.7,30.41,WNW,291,0.0,0.0,81,0.00,,---,0.01,0.00,VWS V14.00,2013-03-09 02:01:00,
2013-03-08 21:06:00,29.5,24.7,30.40,WNW,291,0.0,0.0,82,0.00,,---,0.01,0.00,VWS V14.00,2013-03-09 02:06:00,
2013-03-08 21:11:00,29.4,24.9,30.40,WNW,291,0.0,0.0,83,0.00,,---,0.01,0.00,VWS V14.00,2013-03-09 02:11:00,
2013-03-08 21:16:00,29.2,25.0,30.40,WNW,291,0.0,0.0,84,0.00,,---,0.01,0.00,VWS V14.00,2013-03-09 02:16:00,
2013-03-08 21:21:00,29.0,24.8,30.40,WNW,291,0.0,0.0,84,0.00,,---,0.01,0.00,VWS V14.00,2013-03-09 02:21:00,
2013-03-08 21:26:00,28.8,24.6,30.40,WNW,291,0.0,0.0,84,0.00,,---,0.01,0.00,VWS V14.00,2013-03-09 02:26:00,
2013-03-08 21:30:00,26.5,23.7,30.41,WNW,291,1.0,4.0,89,0.00,,---,0.01,0.00,VWS V14.00,2013-03-09 02:30:00,
2013-03-08 21:31:00,28.6,24.4,30.40,WNW,291,0.0,0.0,84,0.00,,---,0.01,0.00,VWS V14.00,2013-03-09 02:31:00,
2013-03-08 21:36:00,28.4,24.8,30.40,WNW,291,0.0,0.0,86,0.00,,---,0.01,0.00,VWS V14.00,2013-03-09 02:36:00,
2013-03-08 21:41:00,28.5,24.9,30.40,WNW,291,0.0,0.0,86,0.00,,---,0.01,0.00,VWS V14.00,2013-03-09 02:41:00,
2013-03-08 21:46:00,28.5,24.6,30.39,WNW,291,0.0,0.0,85,0.00,,---,0.01,0.00,VWS V14.00,2013-03-09 02:46:00,
2013-03-08 21:51:00,28.3,24.4,30.39,WNW,291,0.0,0.0,85,0.00,,---,0.01,0.00,VWS V14.00,2013-03-09 02:51:00,
2013-03-08 21:57:00,28.0,24.1,30.40,WNW,291,0.0,0.0,85,0.00,,---,0.01,0.00,VWS V14.00,2013-03-09 02:57:00,
2013-03-08 22:00:00,25.4,22.9,30.41,WNW,291,0.0,2.0,90,0.00,,---,0.01,0.00,VWS V14.00,2013-03-09 03:00:00,
2013-03-08 22:02:00,27.8,24.2,30.40,WNW,291,0.0,0.0,86,0.00,,---,0.01,0.00,VWS V14.00,2013-03-09 03:02:00,
2013-03-08 22:07:00,27.5,24.1,30.40,WNW,291,0.0,0.0,87,0.00,,---,0.01,0.00,VWS V14.00,2013-03-09 03:07:00,
2013-03-08 22:12:00,27.2,23.9,30.40,WNW,291,0.0,0.0,87,0.00,,---,0.01,0.00,VWS V14.00,2013-03-09 03:12:00,
2013-03-08 22:17:00,27.1,24.0,30.41,WNW,291,0.0,0.0,88,0.00,,---,0.01,0.00,VWS V14.00,2013-03-09 03:17:00,
2013-03-08 22:22:00,26.9,23.8,30.41,WNW,291,0.0,0.0,88,0.00,,---,0.01,0.00,VWS V14.00,2013-03-09 03:22:00,
2013-03-08 22:27:00,26.6,23.5,30.41,WNW,291,0.0,1.0,88,0.00,,---,0.01,0.00,VWS V14.00,2013-03-09 03:27:00,
2013-03-08 22:30:00,25.8,24.1,30.42,WNW,291,0.0,4.0,93,0.00,,---,0.01,0.00,VWS V14.00,2013-03-09 03:30:00,
2013-03-08 22:32:00,26.5,23.7,30.41,WNW,291,2.0,2.0,89,0.00,,---,0.01,0.00,VWS V14.00,2013-03-09 03:32:00,
2013-03-08 22:37:00,26.5,23.7,30.41,WNW,291,2.0,2.0,89,0.00,,---,0.01,0.00,VWS V14.00,2013-03-09 03:37:00,
2013-03-08 22:42:00,26.5,24.0,30.41,WNW,291,1.0,2.0,90,0.00,,---,0.01,0.00,VWS V14.00,2013-03-09 03:42:00,
2013-03-08 22:47:00,26.5,24.0,30.42,WNW,291,0.0,2.0,90,0.00,,---,0.01,0.00,VWS V14.00,2013-03-09 03:47:00,
2013-03-08 22:52:00,26.1,23.3,30.41,WNW,291,0.0,2.0,89,0.00,,---,0.01,0.00,VWS V14.00,2013-03-09 03:52:00,
2013-03-08 22:57:00,25.7,22.9,30.41,WNW,291,0.0,2.0,89,0.00,,---,0.01,0.00,VWS V14.00,2013-03-09 03:57:00,
2013-03-08 23:00:00,25.8,23.8,30.42,WNW,291,0.0,4.0,92,0.00,,---,0.00,0.00,VWS V14.00,2013-03-09 04:00:00,
2013-03-08 23:02:00,25.4,22.9,30.41,WNW,291,0.0,0.0,90,0.00,,---,0.01,0.00,VWS V14.00,2013-03-09 04:02:00,
2013-03-08 23:07:00,25.2,22.7,30.41,WNW,291,0.0,0.0,90,0.00,,---,0.01,0.00,VWS V14.00,2013-03-09 04:07:00,
2013-03-08 23:12:00,24.8,22.3,30.41,WNW,291,0.0,0.0,90,0.00,,---,0.01,0.00,VWS V14.00,2013-03-09 04:12:00,
2013-03-08 23:17:00,24.6,22.1,30.42,WNW,291,1.0,1.0,90,0.00,,---,0.01,0.00,VWS V14.00,2013-03-09 04:17:00,
2013-03-08 23:22:00,25.2,23.5,30.42,WNW,291,1.0,4.0,93,0.00,,---,0.01,0.00,VWS V14.00,2013-03-09 04:22:00,
2013-03-08 23:27:00,25.6,23.9,30.42,WNW,291,0.0,4.0,93,0.00,,---,0.01,0.00,VWS V14.00,2013-03-09 04:27:00,
2013-03-08 23:30:00,24.4,22.4,30.42,WNW,291,0.0,2.0,92,0.00,,---,0.00,0.00,VWS V14.00,2013-03-09 04:30:00,
2013-03-08 23:32:00,25.8,23.8,30.42,WNW,291,0.0,1.0,92,0.00,,---,0.01,0.00,VWS V14.00,2013-03-09 04:32:00,
2013-03-08 23:37:00,25.8,23.8,30.42,WNW,291,2.0,2.0,92,0.00,,---,0.01,0.00,VWS V14.00,2013-03-09 04:37:00,
2013-03-08 23:42:00,26.0,24.0,30.42,WNW,291,0.0,4.0,92,0.00,,---,0.01,0.00,VWS V14.00,2013-03-09 04:42:00,
2013-03-08 23:47:00,26.0,24.0,30.42,WNW,291,0.0,4.0,92,0.00,,---,0.01,0.00,VWS V14.00,2013-03-09 04:47:00,
2013-03-08 23:52:00,25.9,23.6,30.42,WNW,291,0.0,4.0,91,0.00,,---,0.01,0.00,VWS V14.00,2013-03-09 04:52:00,
2013-03-08 23:57:00,25.8,23.8,30.42,WNW,291,0.0,4.0,92,0.00,,---,0.01,0.00,VWS V14.00,2013-03-09 04:57:00,